This is the latest recevied weather packets stored in our database for station/object KI4FRU. If no packets are shown the sender has not sent any weather packets the latest 10 day(s).
| Time | Temp. | Humidity | Pressure | Rain* | Wind** | Luminosity | Snow |
|---|---|---|---|---|---|---|---|
| 1777992354 | 20.56° C | 66% | 1055.5 hPa | 0 mm | - | 57 W/m² | - |
| 1777992051 | 20.56° C | 64% | 1055.5 hPa | 0 mm | - | 53 W/m² | - |
| 1777991749 | 20.56° C | 64% | 1055.5 hPa | 0 mm | - | 78 W/m² | - |
| 1777991446 | 20.56° C | 68% | 1055.5 hPa | 0 mm | - | 38 W/m² | - |
| 1777991143 | 20° C | 68% | 1055.3 hPa | 0 mm | - | 44 W/m² | - |
| 1777990840 | 20° C | 69% | 1055.7 hPa | 0 mm | - | 25 W/m² | - |
| 1777990537 | 19.44° C | 69% | 1055.4 hPa | 0 mm | - | 37 W/m² | - |
| 1777989931 | 18.89° C | 74% | 1055.3 hPa | 0 mm | - | 47 W/m² | - |
| 1777989628 | 18.33° C | 73% | 1055.4 hPa | 0 mm | - | 49 W/m² | - |
| 1777989324 | 18.33° C | 77% | 1055.3 hPa | 0 mm | - | 47 W/m² | - |
| 1777989021 | 18.33° C | 74% | 1055.5 hPa | 0 mm | - | 41 W/m² | - |
| 1777988716 | 17.78° C | 77% | 1055.3 hPa | 0 mm | - | 49 W/m² | - |
| 1777988414 | 17.78° C | 75% | 1055.2 hPa | 0 mm | - | 45 W/m² | - |
| 1777988111 | 17.78° C | 75% | 1055.2 hPa | 0 mm | - | 41 W/m² | - |
| 1777987807 | 17.78° C | 77% | 1055 hPa | 0 mm | - | 41 W/m² | - |
| 1777987503 | 17.78° C | 78% | 1055.2 hPa | 0 mm | - | 29 W/m² | - |
| 1777987201 | 17.22° C | 77% | 1055.1 hPa | 0 mm | - | 36 W/m² | - |
| 1777986897 | 16.67° C | 78% | 1055.3 hPa | 0 mm | - | 36 W/m² | - |
| 1777986596 | 16.67° C | 78% | 1055.2 hPa | 0 mm | - | 28 W/m² | - |
| 1777986293 | 16.67° C | 80% | 1055.3 hPa | 0 mm | - | 30 W/m² | - |
| 1777985991 | 16.11° C | 83% | 1055.1 hPa | 0 mm | - | 30 W/m² | - |
| 1777985688 | 16.11° C | 84% | 1055.3 hPa | 0 mm | - | 29 W/m² | - |
| 1777985384 | 16.11° C | 84% | 1055.2 hPa | 0 mm | - | 29 W/m² | - |
| 1777985081 | 15.56° C | 85% | 1055.2 hPa | 0 mm | - | 28 W/m² | - |
| 1777984777 | 15.56° C | 86% | 1055.2 hPa | 0 mm | - | 28 W/m² | - |
* Rain latest hour (hover to see other rain measurements)
** Current wind speed in m/s (hover to see current wind gust speed)